WA4EMN Weather Reports


time (UTC)temp
C
wind
direction
speed
KPH
gust
KPH
rain 1hr
cm
rain 24hr
cm
rain mn
cm
humidity
%
barometer
mb
20260503072504 19 302 3.2 11.3 0.00 2.01 0.20 96 1012.6
20260503071505 19 203 1.6 19.3 0.00 2.01 0.20 96 1012.3
20260503071005 19 30 8.0 12.9 0.00 2.01 0.20 96 1012.6
20260503070505 19 1 4.8 16.1 0.00 2.01 0.20 96 1012.7
20260503055004 21 20 6.4 12.9 0.10 1.98 0.18 97 1013.0
20260503054505 21 7 4.8 11.3 0.10 1.98 0.18 97 1012.8
20260503054005 21 352 3.2 9.7 0.10 1.98 0.18 96 1012.9
20260503053505 21 37 3.2 11.3 0.08 1.96 0.15 96 1012.8
20260503052005 21 30 3.2 12.9 0.08 1.93 0.13 96 1013.0
20260503051505 21 348 6.4 12.9 0.05 1.91 0.10 96 1013.1
20260503051005 21 341 4.8 11.3 0.05 1.91 0.10 96 1013.1
20260503050505 21 345 3.2 11.3 0.08 1.91 0.10 96 1012.9
20260503050005 21 333 3.2 9.7 0.10 1.91 0.10 96 1013.0
20260503045506 21 312 3.2 8.0 0.13 1.88 0.08 96 1012.9
20260503045005 21 308 1.6 3.2 0.13 1.88 0.08 96 1013.2
20260503044505 21 0 3.2 3.2 0.13 1.88 0.08 96 1012.9
20260503044005 21 256 0.0 0.0 0.13 1.88 0.08 96 1013.1
20260503043005 21 237 0.0 1.6 0.13 1.88 0.08 96 1012.9
20260503042505 21 236 0.0 3.2 0.13 1.88 0.08 95 1013.0
20260503042005 21 236 1.6 3.2 0.10 1.85 0.05 95 1012.9
20260503041005 21 250 1.6 8.0 0.10 1.85 0.05 95 1013.0
20260503040505 21 290 3.2 9.7 0.08 1.83 0.03 95 1013.0
20260503040005 21 326 3.2 9.7 0.05 1.80 0.00 95 1012.8
20260503035505 21 272 3.2 9.7 0.00 1.75 1.75 95 1013.2
20260503035005 21 240 1.6 8.0 0.00 1.75 1.75 95 1012.5
20260503034004 21 241 3.2 4.8 0.00 1.75 1.75 94 1012.4
20260503033505 21 216 3.2 4.8 0.00 1.75 1.75 94 1012.2
20260503032505 21 229 1.6 8.0 0.00 1.75 1.75 94 1011.7
20260503031005 21 225 1.6 3.2 0.00 1.75 1.75 95 1011.4
20260503030005 21 224 0.0 1.6 0.00 1.75 1.75 95 1011.5
20260503025505 21 201 0.0 1.6 0.00 1.75 1.75 95 1011.4
20260503025005 21 212 0.0 4.8 0.00 1.75 1.75 94 1011.6
20260503024504 21 206 0.0 4.8 0.00 1.75 1.75 94 1011.5
20260503024005 21 204 1.6 4.8 0.00 1.75 1.75 94 1011.6
20260503023505 21 229 1.6 4.8 0.00 1.75 1.75 94 1011.6
20260503023005 21 214 1.6 8.0 0.00 1.75 1.75 94 1011.8
20260503022505 21 211 3.2 9.7 0.00 1.75 1.75 94 1011.8
20260503021505 21 200 4.8 9.7 0.00 1.75 1.75 95 1011.7
20260503021005 21 213 3.2 9.7 0.00 1.75 1.75 95 1011.5
20260503020505 21 238 3.2 9.7 0.00 1.75 1.75 95 1011.5
20260503020004 21 202 3.2 4.8 0.00 1.75 1.75 95 1011.3
20260503015505 21 213 1.6 4.8 0.00 1.75 1.75 95 1011.4
20260503015005 21 223 3.2 4.8 0.00 1.75 1.75 96 1011.3
20260503014506 21 204 1.6 4.8 0.00 1.75 1.75 96 1011.2
20260503013504 21 221 0.0 4.8 0.00 1.75 1.75 96 1010.9
20260503013005 21 218 0.0 4.8 0.00 1.75 1.75 96 1010.7
20260503012505 21 213 1.6 4.8 0.00 1.75 1.75 96 1010.8
20260503012005 21 226 1.6 4.8 0.00 1.75 1.75 96 1010.8
20260503011005 21 209 0.0 8.0 0.00 1.75 1.75 96 1010.6
20260503010506 21 231 1.6 8.0 0.00 1.75 1.75 96 1010.5
20260503005506 21 229 3.2 9.7 0.00 1.75 1.75 96 1010.6
20260503005004 21 219 4.8 9.7 0.00 1.75 1.75 96 1010.7
20260503004505 21 222 4.8 8.0 0.00 1.75 1.75 96 1010.6
20260503004005 21 238 4.8 9.7 0.00 1.75 1.75 96 1010.7
20260503003504 21 223 3.2 9.7 0.03 1.75 1.75 96 1010.5
20260503003004 21 239 3.2 11.3 0.03 1.75 1.75 96 1010.3
20260503002505 21 209 4.8 11.3 0.03 1.75 1.75 96 1010.3
20260503002004 21 223 4.8 11.3 0.05 1.75 1.75 96 1010.3
20260503001505 21 228 4.8 11.3 0.05 1.75 1.75 96 1010.4
20260503001006 21 241 6.4 11.3 0.05 1.75 1.75 96 1010.2
20260503000504 21 237 1.6 8.0 0.05 1.75 1.75 96 1009.4
20260503000004 21 200 0.0 1.6 0.08 1.75 1.75 96 1008.6
20260502235505 21 192 1.6 3.2 0.08 1.75 1.75 96 1008.7
20260502235004 21 193 1.6 4.8 0.08 1.75 1.75 96 1009.1
20260502234504 21 288 1.6 8.0 0.08 1.75 1.75 96 1008.9
20260502234005 21 165 1.6 9.7 0.10 1.75 1.75 96 1008.7
20260502233004 21 241 4.8 11.3 0.08 1.73 1.73 96 1010.0
20260502232506 21 221 4.8 9.7 0.10 1.73 1.73 96 1009.7
20260502232004 21 192 1.6 9.7 0.08 1.70 1.70 97 1009.5
20260502231504 21 231 4.8 9.7 0.10 1.70 1.70 97 1009.8
20260502231005 21 182 1.6 4.8 0.13 1.70 1.70 97 1009.6
20260502230505 22 225 1.6 3.2 0.13 1.70 1.70 97 1009.3
20260502230005 21 222 1.6 3.2 0.13 1.68 1.68 97 1009.8
20260502225505 21 204 0.0 4.8 0.13 1.68 1.68 97 1009.1
20260502224505 21 169 1.6 4.8 0.13 1.68 1.68 97 1009.4
20260502224005 21 195 0.0 4.8 0.10 1.65 1.65 97 1009.5
20260502223505 22 204 1.6 4.8 0.13 1.65 1.65 96 1009.6
20260502223006 21 196 0.0 3.2 0.15 1.65 1.65 97 1009.3
20260502222505 21 216 1.6 4.8 0.18 1.63 1.63 96 1009.9
20260502222005 21 217 1.6 4.8 0.18 1.63 1.63 96 1010.2
20260502221505 21 221 1.6 4.8 0.18 1.60 1.60 96 1010.1
20260502221005 21 218 1.6 4.8 0.15 1.57 1.57 96 1010.2
20260502220505 21 197 1.6 4.8 0.15 1.57 1.57 96 1010.0
20260502220004 21 185 0.0 8.0 0.13 1.55 1.55 96 1009.7
20260502215505 21 200 1.6 8.0 0.13 1.55 1.55 96 1009.7
20260502214505 21 178 3.2 4.8 0.13 1.55 1.55 96 1009.4
20260502214006 21 189 1.6 3.2 0.13 1.55 1.55 96 1009.0
20260502213505 21 130 1.6 3.2 0.10 1.52 1.52 96 1008.9
20260502213005 21 206 0.0 0.0 0.08 1.50 1.50 96 1009.0
20260502212507 21 206 0.0 3.2 0.03 1.45 1.45 96 1009.0
20260502212005 21 223 0.0 3.2 0.03 1.45 1.45 96 1009.3
20260502211009 21 203 0.0 4.8 0.03 1.42 1.42 95 1009.5
20260502210505 21 196 1.6 4.8 0.30 1.42 1.42 95 1009.4
20260502210005 21 181 1.6 3.2 1.04 1.42 1.42 95 1009.6
20260502205505 22 218 0.0 0.0 1.35 1.42 1.42 96 1009.6
20260502205005 21 219 0.0 0.0 1.42 1.42 1.42 95 1009.7
20260502204505 21 219 0.0 3.2 1.42 1.42 1.42 95 1009.9
20260502204005 21 214 0.0 3.2 1.42 1.42 1.42 95 1009.5
20260502202005 21 237 0.0 14.5 1.42 1.42 1.42 94 1009.4
20260502201505 21 215 0.0 25.7 1.40 1.40 1.40 94 1009.4
20260502201004 21 249 8.0 25.7 1.40 1.40 1.40 93 1009.2
20260502200505 21 178 14.5 25.7 1.12 1.12 1.12 90 1010.2
20260502195506 26 305 12.9 22.5 0.08 0.08 0.08 75 1010.5
20260502194506 27 240 4.8 14.5 0.00 0.00 0.00 76 1009.3
20260502194005 27 234 8.0 14.5 0.00 0.00 0.00 76 1009.5
20260502193505 27 271 3.2 11.3 0.00 0.00 0.00 77 1009.5
20260502192505 27 294 4.8 12.9 0.00 0.00 0.00 76 1009.6
20260502192006 27 240 4.8 12.9 0.00 0.00 0.00 75 1009.9
20260502191505 27 281 4.8 11.3 0.00 0.00 0.00 75 1010.0
20260502190505 27 230 3.2 11.3 0.00 0.00 0.00 75 1009.7
20260502185006 28 238 4.8 19.3 0.00 0.00 0.00 74 1009.5
20260502184505 28 237 4.8 19.3 0.00 0.00 0.00 72 1009.9
20260502184005 28 259 4.8 14.5 0.00 0.00 0.00 71 1009.7
20260502183505 28 258 4.8 16.1 0.00 0.00 0.00 71 1009.9
20260502183006 28 232 4.8 16.1 0.00 0.00 0.00 70 1009.9
20260502182006 28 239 4.8 19.3 0.00 0.00 0.00 70 1009.8
20260502181506 28 248 6.4 22.5 0.00 0.00 0.00 68 1010.0
20260502181005 29 250 9.7 22.5 0.00 0.00 0.00 68 1009.9
20260502180505 29 245 8.0 22.5 0.00 0.00 0.00 68 1010.3
20260502170504 29 246 19.3 29.0 0.00 0.00 0.00 68 1010.2
20260502164007 30 267 11.3 27.4 0.00 0.00 0.00 66 1010.0
20260502163504 30 243 11.3 29.0 0.00 0.00 0.00 67 1010.2
20260502163005 30 248 9.7 29.0 0.00 0.00 0.00 67 1010.1
20260502162506 30 241 16.1 25.7 0.00 0.00 0.00 66 1010.3
20260502162005 30 235 14.5 32.2 0.00 0.00 0.00 64 1010.0
20260502161005 30 243 20.9 32.2 0.00 0.00 0.00 63 1010.3
20260502160506 30 230 11.3 32.2 0.00 0.00 0.00 63 1010.3
20260502152005 30 257 11.3 27.4 0.00 0.00 0.00 63 1010.2
20260502151505 30 240 14.5 27.4 0.00 0.00 0.00 62 1010.1
20260502151005 30 236 16.1 27.4 0.00 0.00 0.00 62 1010.1
20260502150504 30 260 12.9 27.4 0.00 0.00 0.00 62 1010.1
20260502130507 25 160 3.2 9.7 0.00 0.00 0.00 82 1009.0
20260502123505 22 171 3.2 9.7 0.00 0.00 0.00 92 1009.0
20260502122505 21 150 3.2 8.0 0.00 0.00 0.00 96 1009.2
20260502122005 21 176 3.2 8.0 0.00 0.00 0.00 97 1009.0
20260502121504 21 158 3.2 8.0 0.00 0.00 0.00 97 1008.9
20260502120505 20 157 3.2 4.8 0.00 0.00 0.00 97 1008.8
20260502115504 20 180 1.6 8.0 0.00 0.00 0.00 97 1009.1
20260502115005 20 180 3.2 9.7 0.00 0.00 0.00 97 1009.1
20260502113505 20 200 3.2 8.0 0.00 0.00 0.00 97 1009.1
20260502112507 20 172 1.6 8.0 0.00 0.00 0.00 97 1009.2
20260502112005 20 180 3.2 8.0 0.00 0.00 0.00 97 1009.0
20260502111505 20 156 3.2 4.8 0.00 0.00 0.00 97 1009.0
20260502111006 20 175 1.6 8.0 0.00 0.00 0.00 97 1008.7
20260502110505 19 158 1.6 8.0 0.00 0.00 0.00 97 1008.7
20260502105505 19 151 1.6 4.8 0.00 0.00 0.00 97 1008.7
20260502105005 19 174 3.2 4.8 0.00 0.00 0.00 97 1008.6
20260502104005 19 184 3.2 4.8 0.00 0.00 0.00 97 1008.5
20260502103505 19 189 1.6 3.2 0.00 0.00 0.00 97 1008.6
20260502103006 19 183 0.0 3.2 0.00 0.00 0.00 97 1008.6
20260502102505 20 199 1.6 3.2 0.00 0.00 0.00 97 1008.6
20260502102005 20 195 0.0 3.2 0.00 0.00 0.00 97 1008.5
20260502101505 20 200 0.0 3.2 0.00 0.00 0.00 97 1008.4
20260502100504 20 185 1.6 4.8 0.00 0.00 0.00 97 1008.4
20260502091505 20 181 0.0 1.6 0.00 0.00 0.00 97 1009.0
20260502090504 20 181 0.0 1.6 0.00 0.00 0.00 97 1009.0